Track COSMOS 2516 (GLONASS) now! COSMOS 2516 (GLONASS) is classified as:
1 41554U 16032A 23086.55947316 .00000036 00000-0 00000-0 0 9999 2 41554 63.8802 231.6240 0014392 212.1718 147.7126 2.13106458 53137